THURAYA-3 (32404 NORAD) Tracking and Keplerian Element Data

This shows tracking and keplerian element data for the satellite.

Feedback or suggestion? Click here.




ElementValue
Catalog32404
NameTHURAYA-3
Epoch Orbit6012
Epoch Day160.08605878
Epoch Year2024
RAAN32.3889
Inclination4.8418
Eccentricity0.0002351
Argument of Perigee40.2595
Mean Anonmoly313.7828
Mean Motion1.00272692
Decay Rate-3.06E-06
L11 32404U 08001A 24160.08605878 -.00000306 00000+0 00000+0 0 9995
L22 32404 4.8418 32.3889 0002351 40.2595 313.7828 1.00272692 60129



Live tracking and technical data element details for THURAYA-3 (NORAD 32404). THURAYA-3 can be tracked NOW for your location showing map with azimuth and elevation plus other details from your city location.







IsCatalogInMostPopularTable: catalog: 32404, numindb: 1232
Update: records affected: 1



GetName: 32404 THURAYA-3

Hit Count: updated at: Tue, 17 Sep 2024 13:17:00 GMT